This demonstration page uses our WeatherBlox Daily Observations layout. Learn more.

38.89511, -77.03637

Hourly Observations for July 23, 2017

Temp ( °F °C ) Dew Point ( °F °C ) Humidity (%) Winds ( mph kmh ) Pressure ( in mb ) Visibility ( mi km ) Precip ( " mm )
12:52 am 00:52 Cloudy with Light Rain 75 23.9 74 23.3 96 96 WSW 5 7 29.8 1009 10 16.09344 0.001 0.001
1:52 am 01:52 Cloudy with Light Rain 75 23.9 74 23.3 96 96 SSW 5 7 29.77 1008 10 16.09344 0.01 0.254
1:59 am 01:59 Cloudy 76 24.4 75 23.9 97 97 SSW 5 7 29.77 1008 10 16.09344 0.001 0.001
2:06 am 02:06 Cloudy 76 24.4 75 23.9 97 97 S 6 9 29.77 1008 10 16.09344 0.001 0.001
2:52 am 02:52 Cloudy 76 24.4 75 23.9 97 97 SSW 5 7 29.74 1007 10 16.09344 0.001 0.001
3:43 am 03:43 Partly Cloudy 75 23.9 74 23.3 96 96 SW 5 7 29.77 1008 10 16.09344 0 0
3:52 am 03:52 Mostly Cloudy 75 23.9 74 23.3 96 96 SSW 6 9 29.74 1007 10 16.09344 0 0
4:52 am 04:52 Cloudy 75 23.9 74 23.3 96 96 SW 3 6 29.77 1008 10 16.09344 0 0
5:05 am 05:05 Mostly Cloudy 75 23.9 74 23.3 96 96 Calm 29.77 1008 10 16.09344 0 0
5:10 am 05:10 Mostly Cloudy 75 23.9 74 23.3 96 96 Calm 29.77 1008 7 11.265408 0 0
5:44 am 05:44 Mostly Cloudy 75 23.9 75 23.9 100 100 W 3 6 29.77 1008 7 11.265408 0 0
5:52 am 05:52 Mostly Cloudy 75 23.9 75 23.9 100 100 Calm 29.77 1008 7 11.265408 0 0
6:52 am 06:52 Mostly Cloudy 76 24.4 75 23.9 97 97 Calm 29.77 1008 10 16.09344 0 0
7:52 am 07:52 Mostly Cloudy 77 25 75 23.9 94 94 Calm 29.77 1008 10 16.09344 0 0
8:52 am 08:52 Mostly Cloudy 80 26.7 75 23.9 85 85 Calm 29.8 1009 10 16.09344 0 0
9:52 am 09:52 Mostly Cloudy 82 27.8 76 24.4 82 82 E 3 6 29.8 1009 10 16.09344 0 0
10:52 am 10:52 Mostly Cloudy 85 29.4 75 23.9 72 72 Calm 29.8 1009 10 16.09344 0 0
11:52 am 11:52 Mostly Cloudy 88 31.1 72 22.2 59 59 WNW 12 19 29.8 1009 10 16.09344 0 0
12:52 pm 12:52 Cloudy 89 31.7 74 23.3 61 61 N 5 7 29.8 1009 10 16.09344 0 0
1:52 pm 13:52 Cloudy with Heavy Rain 83 28.3 76 24.4 79 79 SW 14 22 29.77 1008 1.75 2.816352 0.06 1.524
1:56 pm 13:56 Cloudy with Heavy Rain 81 27.2 76 24.4 85 85 SW 21 33 29.8 1009 0.75 1.207008 0.1 2.54
2:02 pm 14:02 Cloudy with Heavy Rain 78 25.6 76 24.4 93 93 SSW 20 31 29.8 1009 0.5 0.804672 0.33 8.382
2:11 pm 14:11 Cloudy with Thunderstorms 77 25 76 24.4 96 96 SW 13 20 29.8 1009 2.5 4.02336 0.4 10.16
2:15 pm 14:15 Cloudy with Light Thunderstorms 77 25 75 23.9 94 94 S 9 15 29.8 1009 4 6.437376 0.41 10.414
2:20 pm 14:20 Cloudy with Light Rain 77 25 76 24.4 96 96 SSW 7 11 29.8 1009 7 11.265408 0.41 10.414
2:52 pm 14:52 Mostly Cloudy 82 27.8 79 26.1 90 90 S 9 15 29.8 1009 10 16.09344 0.41 10.414
3:39 pm 15:39 Mostly Cloudy 80 26.7 76 24.4 87 87 S 12 19 29.8 1009 10 16.09344 0 0
3:41 pm 15:41 Mostly Cloudy 79 26.1 76 24.4 90 90 S 13 20 29.8 1009 10 16.09344 0 0
3:52 pm 15:52 Mostly Cloudy 80 26.7 76 24.4 87 87 S 10 17 29.8 1009 10 16.09344 0 0
4:52 pm 16:52 Mostly Cloudy 82 27.8 77 25 85 85 SSW 6 9 29.77 1008 10 16.09344 0 0
5:52 pm 17:52 Mostly Cloudy 84 28.9 77 25 80 80 ESE 3 6 29.77 1008 10 16.09344 0 0
6:24 pm 18:24 Mostly Cloudy 84 28.9 77 25 80 80 N 6 9 29.77 1008 10 16.09344 0 0
6:28 pm 18:28 Mostly Cloudy with Thunderstorms 83 28.3 77 25 82 82 NNW 18 30 29.77 1008 10 16.09344 0 0
6:37 pm 18:37 Cloudy with Heavy Thunderstorms 75 23.9 71 21.7 88 88 N 17 28 29.8 1009 2 3.218688 0.001 0.001
6:39 pm 18:39 Cloudy with Heavy Thunderstorms 74 23.3 72 22.2 94 94 N 17 28 29.8 1009 1 1.609344 0.04 1.016
6:41 pm 18:41 Cloudy with Heavy Thunderstorms 73 22.8 72 22.2 96 96 N 17 28 29.77 1008 0.75 1.207008 0.13 3.302
6:49 pm 18:49 Cloudy with Heavy Thunderstorms 73 23 73 23 100 100 ENE 16 26 29.77 1008 0.5 0.804672 0.5 12.7
6:52 pm 18:52 Cloudy with Heavy Thunderstorms 73 22.8 73 22.8 100 100 E 15 24 29.74 1007 1 1.609344 0.54 13.716
6:58 pm 18:58 Mostly Cloudy with Heavy Thunderstorms 73 22.8 72 22.2 96 96 ENE 12 19 29.77 1008 3 4.828032 0.03 0.762
7:02 pm 19:02 Mostly Cloudy with Light Rain 74 23.3 73 22.8 97 97 E 10 17 29.77 1008 4 6.437376 0.04 1.016
7:08 pm 19:08 Mostly Cloudy with Light Rain 74 23.3 73 22.8 97 97 ENE 6 9 29.77 1008 10 16.09344 0.04 1.016
7:52 pm 19:52 Mostly Cloudy 77 25 72 22.2 85 85 Calm 29.74 1007 10 16.09344 0.04 1.016
8:52 pm 20:52 Mostly Cloudy 78 25.6 73 22.8 85 85 Calm 29.77 1008 10 16.09344 0 0
9:52 pm 21:52 Mostly Cloudy 77 25 74 23.3 90 90 Calm 29.8 1009 10 16.09344 0 0
10:50 pm 22:50 Mostly Cloudy with Light Thunderstorms 79 26 75 24 89 89 Calm 29.8 1009 7 11.265408 0.02 0.508
10:52 pm 22:52 Mostly Cloudy with Light Thunderstorms 78 25.6 76 24.4 93 93 ENE 5 7 29.77 1008 7 11.265408 0.02 0.508
11:05 pm 23:05 Cloudy with Heavy Thunderstorms 77 25 75 23.9 94 94 N 8 13 29.8 1009 1.5 2.414016 0.03 0.762
11:09 pm 23:09 Cloudy with Heavy Rain 77 25 76 24.4 96 96 NE 12 19 29.77 1008 3 4.828032 0.21 5.334
11:22 pm 23:22 Cloudy with Light Thunderstorms 77 25 74 23.3 90 90 N 8 13 29.77 1008 8 12.874752 0.29 7.366
11:33 pm 23:33 Cloudy with Thunderstorms 78 25.6 76 24.4 93 93 NNE 7 11 29.77 1008 5 8.04672 0.3 7.62
11:49 pm 23:49 Cloudy with Light Thunderstorms 75 24 73 23 94 94 N 14 22 29.77 1008 10 16.09344 0.31 7.874
11:52 pm 23:52 Cloudy with Light Thunderstorms 76 24.4 74 23.3 94 94 N 16 26 29.77 1008 10 16.09344 0.31 7.874
11:56 pm 23:56 Cloudy with Light Thunderstorms 76 24.4 74 23.3 94 94 N 13 20 29.77 1008 10 16.09344 0.001 0.001

Powered by AerisWeather